map of PSD home
PSD - Airport
Location
City:  Port Said, Ash Sharqiyah (Al Sharqia), Egypt
ICAO:HEPS
IATA:PSD

Details
Type:Airport (Aerodrome, Airfield)
Use:Public/Civil
Latitude:3116'46"N (31.279444)
Longitude:3214'24"E (32.240000)
Datum:WGS 1984
Elevation:8 ft (2 m)
Variation:4.63E (WMM2015 magnetic declination)
0.09 annual change
Runways:1
Longest:7707 × 148 ft (2349 × 45 m), paved

Time
Time Zone:UTC+2
Local Time:

Weather
METAR:HEPS 111900Z 21007KT CAVOK 17/12 Q1019 NOSIG
TAF:HEPS 111700Z 1118/1224 24010KT 9999 SCT025

Related Locations
Nearby:
Farthest:RVV: 11921 mi / 19184 km
Raivavae, Tubuai Islands, Austral Islands, PF

Find:

   beyond  
but within

Other Information
Maps:
NOTAMs:
Links:
Sources:

  
  • flag of Egypt
  • flag of Ash Sharqiyah (Al Sharqia)
  

Sectional Chart

Flight Planning
at skyvector.com

Satellite Image

Google Maps Satellite view

 

Copyright © 2004-2018 Karl L. Swartz. All rights reserved.
The Great Circle Mapper name and logo are trademarks of the Great Circle Mapper.
All other trademarks mentioned herein belong to their respective owners.
Please see credits for attibutions and further copyright information.

  Follow gcmap on Facebook Follow gcmap on Twitter Follow gcmap on Google+ GCmap on LinkedIn

hCard Microformat

Geo Microformat